Wind_Speed
23 24 24 23 23 22 22 22 22 22 22 22 22 22 22 22 21 21 21 21 20 20 21 21 21 22 22 23 23 23 24 24 23 23 23 23 23 23 23 22 22 21 21
22 22 22 21 21 22 21 22 22 22 22 21 20 20 20 20 20 20 20 20 19 19 19 19 19 20 21 21 21 21 21 21 21 21 22 22 21 21 21 21 20 20 20
21 21 21 20 20 21 21 21 20 20 20 19 19 18 18 18 18 18 18 19 18 19 19 18 18 19 19 20 20 20 20 19 19 19 19 19 19 19 19 20 20 19 19
19 19 19 19 19 19 19 18 18 17 16 16 16 16 15 16 16 16 16 17 17 17 17 16 16 16 17 17 18 18 18 17 17 17 17 16 16 17 17 17 18 18 18
17 17 17 17 17 16 15 15 14 15 14 14 14 14 14 14 15 14 14 15 15 15 15 14 14 14 15 15 15 15 14 14 15 15 16 15 15 15 15 15 16 16 16
16 16 16 16 15 14 14 13 13 13 13 12 13 12 12 12 12 12 13 13 12 13 14 13 12 13 13 13 13 13 13 13 13 14 14 14 15 14 14 13 14 14 14
15 15 15 15 14 13 13 12 12 11 10 10 10 9 9 9 10 10 10 10 10 11 11 11 11 11 12 12 11 11 12 12 13 13 13 13 13 12 12 12 12 12 13
13 14 14 13 13 12 11 11 10 9 8 7 7 7 7 7 8 8 8 8 9 9 9 10 10 11 11 10 10 11 11 11 11 11 11 10 10 11 10 10 10 10 10
12 13 12 11 11 11 10 9 8 7 6 5 5 5 5 5 6 6 6 6 7 7 8 8 8 8 9 9 9 9 9 9 9 8 8 8 8 8 9 8 8 8 8
11 11 10 10 9 9 8 7 6 6 6 6 5 5 4 3 3 4 5 4 5 6 6 7 7 7 7 7 6 6 6 6 7 7 7 8 8 8 8 7 7 7 8
9 9 8 8 8 8 7 7 6 6 6 6 6 5 4 3 3 3 3 2 3 3 4 5 5 5 5 5 6 6 5 5 5 6 6 7 7 7 7 7 6 6 6
7 7 6 6 6 6 7 6 6 6 7 6 6 6 5 4 3 2 2 2 1 1 2 2 3 3 3 4 4 4 4 5 5 5 5 5 6 6 6 6 6 6 6
5 5 5 5 6 5 6 7 7 7 7 6 6 5 5 4 3 2 2 1 1 1 1 1 2 3 3 3 3 3 3 4 4 4 4 5 5 6 6 5 6 6 6
5 5 5 5 5 5 5 6 7 6 6 5 5 5 5 4 4 4 3 2 2 2 3 3 4 3 3 3 4 4 4 3 2 2 3 4 4 4 5 5 6 6 6
4 4 5 5 5 5 6 6 6 6 5 5 6 5 5 5 5 4 5 4 4 3 3 3 3 3 3 3 3 3 3 2 2 2 2 3 3 3 3 4 5 5 6
4 4 5 5 5 5 6 6 6 5 5 5 6 6 6 6 6 5 5 4 4 4 3 2 2 2 2 2 2 2 1 1 2 2 2 3 3 4 4 4 4 5 6
5 4 4 4 5 6 6 6 7 7 7 6 7 7 7 7 6 6 5 4 3 3 3 2 2 1 1 1 1 1 1 2 2 2 3 4 4 5 5 5 6 7 8
5 5 4 5 5 5 6 6 6 6 6 7 7 7 6 6 6 6 6 5 4 3 2 2 1 0 1 2 2 1 1 2 3 3 4 5 5 6 7 8 9 10 10
5 5 5 5 5 5 5 5 5 5 5 5 5 6 6 6 6 5 5 5 4 3 2 2 2 1 1 2 2 3 3 4 5 6 6 7 8 9 9 11 12 12 13
6 5 5 5 5 5 4 4 4 4 4 4 4 4 5 5 5 5 5 4 4 3 3 3 3 3 3 4 4 5 6 7 8 8 9 10 10 11 12 13 14 15 16
6 6 5 5 5 5 5 4 4 4 4 4 4 4 5 4 5 5 5 5 4 5 5 5 5 6 6 7 7 8 9 10 10 11 11 12 13 13 14 16 17 18 19
6 6 5 5 5 5 5 5 5 5 5 5 5 5 5 6 6 6 6 6 7 7 7 7 8 9 10 10 11 12 12 13 13 13 14 14 15 17 18 19 20 21 22
6 6 5 5 5 5 6 6 6 6 6 6 6 6 7 7 8 8 8 8 9 9 10 11 11 12 12 13 14 15 15 16 17 18 18 19 20 21 22 23 24 24 25
6 6 5 5 5 6 6 7 7 7 8 8 9 9 9 10 10 11 11 12 12 12 13 14 14 15 16 16 17 17 18 19 20 21 22 23 23 24 25 26 27 28 28
7 6 6 6 6 7 7 7 8 9 9 10 10 11 11 12 13 13 14 15 15 15 16 17 18 18 19 20 20 21 22 23 24 24 25 25 26 27 28 28 29 30 31
7 7 7 8 8 9 9 10 10 11 11 12 13 13 13 14 15 16 17 17 18 18 19 20 21 21 22 22 23 24 24 25 26 27 28 29 29 30 31 31 32 32 33
Wind_Direction
300 299 299 298 297 294 292 291 289 287 284 279 277 275 274 272 271 269 268 266 266 266 264 262 260 258 257 257 258 257 256 257 257 257 258 258 259 261 262 261 261 258 258
301 300 300 298 298 296 293 293 291 289 286 282 279 276 275 273 271 269 265 263 263 263 262 262 261 259 258 258 258 257 256 256 257 258 258 257 259 260 261 260 258 257 257
302 304 305 303 301 300 297 295 293 290 287 283 281 279 277 274 272 268 265 262 263 263 262 262 260 257 256 256 257 257 255 255 255 256 256 256 258 258 258 257 256 257 257
307 307 308 308 307 305 303 299 293 291 287 286 284 281 277 272 270 270 266 262 263 263 261 262 260 257 256 256 256 256 254 254 253 254 254 256 257 256 256 255 254 256 257
311 311 312 310 308 309 310 305 297 290 287 287 285 284 279 274 268 267 266 263 263 261 258 259 259 258 256 254 255 253 253 252 251 253 253 254 255 257 256 254 254 254 255
312 312 312 313 313 314 313 308 305 298 293 290 287 285 280 271 265 265 266 264 263 260 258 257 256 254 251 252 251 249 248 248 250 252 252 253 255 255 253 253 252 253 254
313 313 313 314 314 315 315 313 310 306 300 295 291 284 278 270 265 265 262 262 264 263 260 256 258 259 256 250 246 245 247 247 248 251 252 252 252 250 251 251 253 251 250
316 319 318 317 318 319 319 318 320 319 311 302 294 290 285 280 271 271 267 266 263 263 266 265 260 258 254 249 248 249 249 248 248 248 249 247 245 241 244 247 248 243 245
318 320 322 323 324 328 329 328 328 327 325 319 315 308 301 285 271 266 272 273 267 266 265 264 260 255 251 247 246 244 243 242 241 239 239 240 238 237 238 237 235 233 239
320 322 326 328 331 336 339 340 343 345 343 341 337 330 323 307 281 268 277 275 271 270 265 260 255 249 245 239 237 235 234 232 228 229 228 230 230 228 227 225 231 239 243
324 325 329 334 340 347 351 353 354 356 356 356 350 343 333 319 305 294 295 288 277 267 261 255 250 239 232 226 225 225 220 218 220 215 214 217 219 218 220 226 233 240 245
331 332 335 343 347 351 356 1 4 5 7 8 3 358 353 344 341 331 314 318 315 295 267 242 218 207 204 206 206 206 208 208 205 200 205 211 213 216 221 231 237 241 248
345 349 354 356 354 356 2 5 7 6 7 11 10 12 15 19 27 30 21 10 12 21 58 124 150 154 161 162 159 169 181 188 191 201 211 214 218 225 233 236 235 242 253
359 0 4 6 6 5 8 8 7 10 16 20 24 32 34 32 32 37 39 49 70 81 94 108 124 130 136 144 146 150 153 161 180 203 215 217 217 226 236 240 243 252 259
6 11 12 15 19 23 18 18 22 26 31 37 36 34 34 37 40 42 42 57 83 97 100 96 104 115 128 135 143 153 160 178 196 202 214 222 231 238 241 249 254 259 264
17 21 25 33 33 30 30 33 34 36 41 44 42 40 40 44 49 52 53 67 83 95 98 92 100 110 129 135 150 169 180 205 231 242 248 254 259 259 256 272 268 263 269
33 35 32 35 38 40 38 37 41 48 53 53 49 47 48 50 51 52 55 63 73 83 87 99 112 125 159 166 185 228 235 237 252 261 265 270 272 273 275 280 279 276 276
46 45 45 46 44 43 42 43 45 51 53 52 52 51 51 53 51 49 50 55 61 72 82 82 67 64 231 242 245 242 243 256 266 271 271 275 277 279 280 280 281 283 283
50 50 49 46 45 46 46 44 42 43 42 42 43 41 39 42 44 43 40 40 44 50 46 29 17 357 314 287 280 270 267 269 273 276 276 278 281 283 283 284 283 284 285
41 42 42 39 37 40 40 34 30 29 26 29 28 25 24 22 19 16 13 13 13 7 357 346 335 322 306 296 292 291 287 283 281 280 281 282 283 285 286 287 287 286 286
36 31 29 30 29 28 27 23 18 14 14 8 2 353 349 348 346 342 339 337 332 325 320 315 308 298 291 289 291 291 291 289 286 284 285 284 285 287 288 288 288 288 288
35 29 26 24 20 17 14 12 8 2 356 351 343 338 334 331 329 327 323 318 312 309 307 303 299 294 289 287 287 288 290 291 291 287 286 287 288 289 289 288 287 287 287
25 23 20 15 10 5 1 357 354 350 345 340 333 327 325 321 318 315 311 306 302 300 298 297 295 293 290 287 286 286 286 286 287 286 286 288 288 289 290 290 290 289 290
18 14 9 2 355 348 344 341 338 337 335 333 327 321 317 313 310 307 305 303 299 296 295 295 293 293 292 290 289 289 289 289 288 288 287 287 288 289 290 290 290 290 290
1 357 351 345 340 336 332 329 328 326 325 323 320 318 314 310 307 304 303 301 299 297 296 295 292 291 291 289 288 288 289 289 289 289 289 289 289 290 290 291 291 290 291
350 345 340 335 331 328 324 321 320 319 318 317 316 314 312 310 306 303 302 301 299 297 295 293 292 292 292 291 290 289 289 290 290 290 290 290 290 290 291 291 292 291 291
Height
5789 5786 5783 5781 5778 5776 5773 5771 5769 5767 5765 5764 5763 5762 5761 5761 5761 5761 5761 5761 5761 5761 5761 5762 5762 5763 5764 5765 5766 5766 5767 5768 5769 5770 5770 5771 5771 5772 5772 5772 5773 5773 5774
5783 5780 5777 5775 5772 5770 5767 5765 5763 5760 5759 5757 5756 5755 5755 5754 5754 5754 5754 5754 5755 5755 5755 5756 5756 5757 5758 5758 5759 5760 5761 5761 5763 5764 5764 5764 5765 5765 5766 5766 5767 5767 5768
5778 5775 5772 5769 5767 5764 5761 5759 5756 5754 5752 5751 5750 5749 5749 5748 5748 5748 5748 5748 5749 5749 5749 5750 5750 5750 5751 5752 5753 5754 5754 5755 5756 5757 5758 5758 5758 5759 5760 5760 5761 5761 5762
5773 5770 5767 5764 5762 5759 5756 5753 5750 5749 5747 5746 5745 5744 5743 5743 5743 5743 5742 5743 5743 5743 5744 5744 5745 5745 5746 5747 5747 5748 5749 5749 5750 5751 5752 5752 5753 5754 5754 5755 5755 5756 5756
5768 5766 5763 5760 5757 5755 5751 5749 5745 5744 5743 5742 5740 5739 5738 5738 5738 5738 5738 5738 5738 5738 5739 5740 5740 5740 5741 5742 5742 5743 5744 5745 5746 5746 5747 5748 5748 5749 5749 5750 5750 5751 5751
5765 5762 5759 5756 5754 5751 5748 5746 5743 5741 5740 5738 5737 5735 5734 5734 5734 5734 5734 5734 5734 5734 5735 5735 5736 5736 5737 5737 5738 5739 5740 5741 5741 5742 5743 5744 5744 5745 5745 5745 5746 5747 5747
5761 5758 5756 5753 5751 5748 5746 5743 5740 5738 5737 5735 5734 5733 5732 5731 5731 5731 5731 5731 5731 5731 5731 5732 5732 5733 5733 5734 5734 5735 5736 5737 5738 5738 5739 5739 5740 5740 5741 5742 5742 5743 5743
5758 5755 5753 5750 5748 5746 5743 5740 5738 5736 5734 5733 5732 5731 5730 5729 5728 5728 5728 5728 5728 5728 5728 5728 5729 5729 5730 5731 5731 5732 5733 5733 5734 5734 5735 5736 5736 5737 5738 5739 5739 5740 5740
5755 5753 5751 5749 5746 5744 5741 5739 5737 5735 5733 5732 5731 5729 5728 5727 5727 5726 5726 5726 5726 5726 5726 5726 5726 5727 5727 5728 5729 5729 5729 5730 5731 5731 5732 5733 5733 5734 5735 5736 5736 5737 5738
5753 5751 5749 5747 5745 5743 5741 5739 5737 5735 5733 5731 5730 5728 5727 5726 5725 5725 5724 5724 5724 5724 5724 5724 5724 5725 5725 5726 5726 5727 5727 5728 5728 5729 5730 5731 5731 5732 5733 5734 5735 5735 5736
5751 5750 5748 5746 5744 5743 5741 5739 5737 5735 5733 5731 5730 5728 5727 5726 5725 5724 5723 5723 5723 5723 5722 5722 5723 5723 5724 5724 5725 5725 5726 5726 5727 5727 5728 5729 5730 5731 5732 5732 5733 5733 5734
5750 5749 5747 5746 5744 5743 5741 5739 5737 5735 5733 5732 5730 5728 5727 5726 5725 5724 5724 5723 5723 5723 5722 5722 5722 5722 5723 5723 5724 5725 5725 5726 5726 5727 5728 5728 5729 5730 5730 5731 5731 5731 5732
5750 5749 5747 5746 5744 5743 5741 5739 5737 5736 5734 5732 5730 5729 5728 5727 5726 5725 5724 5724 5723 5723 5723 5722 5723 5723 5723 5724 5724 5725 5725 5725 5726 5727 5727 5728 5728 5729 5729 5729 5730 5730 5729
5750 5749 5747 5746 5744 5743 5741 5740 5738 5736 5734 5733 5731 5730 5729 5728 5727 5726 5725 5724 5724 5724 5724 5723 5724 5724 5724 5725 5725 5725 5725 5726 5726 5727 5727 5727 5727 5728 5728 5728 5728 5728 5728
5750 5749 5747 5746 5745 5743 5742 5740 5739 5737 5735 5734 5733 5732 5731 5730 5729 5727 5726 5726 5725 5725 5725 5725 5725 5725 5725 5725 5726 5726 5726 5726 5726 5726 5727 5727 5727 5727 5727 5727 5727 5727 5726
5751 5749 5748 5747 5746 5744 5743 5742 5740 5738 5737 5736 5734 5733 5732 5731 5730 5729 5728 5727 5727 5726 5726 5726 5726 5726 5726 5726 5726 5726 5726 5726 5726 5726 5726 5727 5727 5726 5726 5726 5725 5725 5725
5751 5750 5749 5748 5747 5746 5744 5743 5742 5740 5739 5737 5736 5735 5734 5733 5732 5730 5729 5729 5728 5728 5727 5727 5727 5727 5727 5727 5727 5727 5726 5726 5726 5726 5726 5726 5726 5725 5725 5724 5724 5723 5723
5752 5751 5750 5749 5748 5747 5746 5745 5743 5742 5741 5740 5738 5737 5736 5734 5733 5732 5731 5730 5729 5729 5729 5728 5728 5728 5728 5727 5727 5727 5726 5726 5726 5725 5725 5725 5724 5724 5723 5722 5722 5721 5720
5754 5753 5752 5750 5749 5748 5747 5746 5745 5744 5743 5741 5740 5739 5738 5736 5735 5734 5733 5732 5731 5730 5729 5729 5728 5728 5728 5727 5727 5726 5726 5725 5725 5724 5724 5723 5722 5722 5721 5720 5719 5718 5717
5755 5754 5753 5752 5751 5750 5748 5747 5746 5745 5744 5743 5741 5740 5739 5738 5736 5735 5734 5733 5732 5731 5730 5729 5729 5728 5727 5727 5726 5725 5725 5724 5723 5722 5721 5721 5720 5719 5718 5717 5715 5714 5713
5756 5755 5754 5753 5752 5751 5749 5748 5747 5746 5745 5743 5742 5741 5740 5738 5737 5736 5735 5733 5732 5731 5730 5729 5728 5728 5727 5726 5725 5724 5723 5722 5721 5719 5718 5717 5716 5715 5714 5712 5711 5709 5707
5757 5756 5755 5754 5753 5751 5750 5749 5748 5746 5745 5744 5742 5741 5740 5738 5737 5736 5734 5733 5732 5731 5729 5728 5727 5726 5725 5724 5722 5721 5720 5719 5718 5716 5715 5714 5712 5710 5709 5707 5705 5703 5701
5758 5757 5756 5755 5753 5752 5751 5749 5748 5746 5745 5744 5742 5741 5739 5738 5736 5735 5733 5732 5731 5729 5728 5726 5725 5724 5722 5720 5719 5718 5716 5715 5713 5712 5710 5708 5707 5705 5703 5701 5699 5697 5694
5759 5758 5756 5755 5754 5752 5751 5749 5748 5746 5745 5743 5741 5740 5738 5736 5735 5733 5731 5730 5728 5726 5725 5723 5722 5720 5719 5717 5715 5713 5711 5710 5708 5706 5704 5702 5700 5698 5696 5694 5691 5689 5686
5759 5758 5756 5755 5753 5752 5750 5749 5747 5745 5744 5742 5740 5738 5736 5734 5732 5730 5729 5726 5725 5723 5721 5719 5717 5715 5713 5711 5709 5708 5706 5703 5701 5699 5697 5695 5692 5690 5687 5685 5682 5680 5677
5759 5758 5756 5754 5753 5751 5749 5747 5745 5744 5742 5740 5737 5735 5733 5731 5729 5727 5725 5723 5720 5718 5716 5714 5712 5709 5707 5705 5703 5700 5698 5696 5693 5691 5689 5686 5684 5681 5678 5676 5673 5670 5667